TimeAST,TemperatureF,Dew PointF,Humidity,Sea Level PressureIn,VisibilityMPH,Wind Direction,Wind SpeedMPH,Gust SpeedMPH,PrecipitationIn,Events,Conditions,WindDirDegrees,DateUTC
12:00 AM,19.4,15.8,86,29.98,2.5,SW,8.1,-,N/A,Snow,Light Snow,220,2013-02-07 04:00:00
12:16 AM,19.4,15.8,86,29.98,15.0,SW,6.9,-,N/A,Snow,Light Snow,220,2013-02-07 04:16:00
12:26 AM,17.6,15.8,93,29.98,15.0,SW,6.9,-,N/A,,Scattered Clouds,230,2013-02-07 04:26:00
1:00 AM,17.6,15.8,93,29.98,15.0,WSW,8.1,-,N/A,,Partly Cloudy,240,2013-02-07 05:00:00
2:00 AM,17,8,56,29.99,15,West,16.1,,,Snow,Low Drifting Snow,280,2013-02-07 06:00:00
2:00 AM,17.6,8.6,68,29.99,15.0,West,19.6,26.5,N/A,Snow,Low Drifting Snow,280,2013-02-07 06:00:00
3:00 AM,15.8,6.8,68,30.02,15.0,West,10.4,25.3,N/A,Snow,Low Drifting Snow,280,2013-02-07 07:00:00
3:34 AM,14.0,8.6,79,30.03,5.0,WNW,12.7,19.6,N/A,Snow,Light Snow Showers,290,2013-02-07 07:34:00
4:00 AM,14.0,8.6,79,30.04,6.0,WNW,9.2,19.6,N/A,Snow,Light Snow Showers,290,2013-02-07 08:00:00
5:00 AM,12.2,5.0,73,30.06,15.0,WNW,13.8,23.0,N/A,Snow,Low Drifting Snow,290,2013-02-07 09:00:00
5:22 AM,12.2,5.0,73,30.06,8.0,West,13.8,20.7,N/A,Snow,Light Snow Showers,280,2013-02-07 09:22:00
6:00 AM,8.6,-2.2,62,30.08,15.0,West,12.7,23.0,N/A,Snow,Low Drifting Snow,270,2013-02-07 10:00:00
6:36 AM,6.8,-0.4,72,30.10,8.0,West,11.5,-,N/A,Snow,Light Snow Showers,270,2013-02-07 10:36:00
7:00 AM,5.0,-2.2,72,30.11,12.0,West,16.1,23.0,N/A,Snow,Light Snow Showers,270,2013-02-07 11:00:00
7:46 AM,3.2,-7.6,61,30.14,15.0,WNW,17.3,28.8,N/A,Snow,Low Drifting Snow,290,2013-02-07 11:46:00
8:00 AM,2,-7,50,30.15,15,WNW,15.0,,,Snow,Low Drifting Snow,290,2013-02-07 12:00:00
8:00 AM,1.4,-7.6,66,30.15,15.0,WNW,13.8,24.2,N/A,Snow,Low Drifting Snow,290,2013-02-07 12:00:00
9:00 AM,1.4,-9.4,61,30.17,15.0,West,17.3,32.2,N/A,Snow,Low Drifting Snow,270,2013-02-07 13:00:00
9:22 AM,1.4,-9.4,61,30.18,15.0,WNW,23.0,-,N/A,Snow,Light Snow Showers,300,2013-02-07 13:22:00
10:00 AM,-0.4,-11.2,60,30.20,10.0,WNW,24.2,34.5,N/A,Snow,Light Snow Showers,290,2013-02-07 14:00:00
11:00 AM,-0.4,-13.0,55,30.25,10.0,West,19.6,31.1,N/A,Snow,Light Snow Showers,280,2013-02-07 15:00:00
12:00 PM,-2.2,-16.6,50,30.28,15.0,WNW,19.6,31.1,N/A,Snow,Light Snow Showers,290,2013-02-07 16:00:00
1:00 PM,-2.2,-14.8,55,30.29,15.0,West,15.0,24.2,N/A,Snow,Light Snow Showers,280,2013-02-07 17:00:00
2:00 PM,-2,-16,35,30.30,15,WNW,19.6,,,Snow,Light Snow Showers,290,2013-02-07 18:00:00
2:00 PM,-2.2,-16.6,50,30.30,15.0,West,16.1,28.8,N/A,Snow,Light Snow Showers,280,2013-02-07 18:00:00
2:23 PM,-0.4,-16.6,46,30.31,15.0,WNW,19.6,29.9,N/A,Snow,Low Drifting Snow,290,2013-02-07 18:23:00
3:00 PM,-0.4,-14.8,51,30.32,15.0,WNW,18.4,29.9,N/A,Snow,Low Drifting Snow,290,2013-02-07 19:00:00
4:00 PM,1.4,-16.6,43,30.34,15.0,West,18.4,27.6,N/A,Snow,Low Drifting Snow,280,2013-02-07 20:00:00
5:00 PM,-0.4,-16.6,46,30.36,15.0,WNW,16.1,25.3,N/A,Snow,Low Drifting Snow,300,2013-02-07 21:00:00
6:00 PM,-0.4,-16.6,46,30.40,15.0,WNW,13.8,20.7,N/A,Snow,Low Drifting Snow,300,2013-02-07 22:00:00
7:00 PM,-0.4,-14.8,51,30.43,15.0,WNW,9.2,-,N/A,Snow,Low Drifting Snow,290,2013-02-07 23:00:00
8:00 PM,-1,-15,34,30.45,15,WNW,5.8,,,,Partly Cloudy,290,2013-02-08 00:00:00
8:00 PM,-2.2,-14.8,55,30.45,15.0,WNW,4.6,-,N/A,,Partly Cloudy,290,2013-02-08 00:00:00
9:00 PM,-0.4,-14.8,51,30.48,15.0,WNW,9.2,-,N/A,,Partly Cloudy,290,2013-02-08 01:00:00
10:00 PM,-0.4,-13.0,55,30.48,15.0,WNW,11.5,21.9,N/A,Snow,Low Drifting Snow,290,2013-02-08 02:00:00
11:00 PM,-2.2,-13.0,60,30.50,15.0,West,8.1,-,N/A,,Partly Cloudy,270,2013-02-08 03:00:00